Weather History for Dothan, AL

Change the Weather History Date:

Sunday, February 9, 2014

  Actual Average Record
Temperature  
Mean Temperature 53 °F 52 °F  
Max Temperature 67 °F 64 °F 82 °F (1957)
Min Temperature 39 °F 40 °F 24 °F (1947)
Degree Days  
Heating Degree Days 12 13  
Month to date heating degree days 104 128  
Since 1 July heating degree days 1441 1344  
Growing Degree Days 2 (Base 50)    
Moisture  
Dew Point 42 °F    
Average Humidity 69    
Maximum Humidity 93    
Minimum Humidity 40    
Precipitation  
Precipitation 0.00 in 0.17 in 4.26 in (1937)
Month to date precipitation 0.49 1.33  
Year to date precipitation 3.42 5.96  
Sea Level Pressure  
Sea Level Pressure 30.15 in    
Wind  
Wind Speed 3 mph (West)    
Max Wind Speed 9 mph    
Max Gust Speed -    
Visibility 10 miles    
Events      
T = Trace of Precipitation, MM = Missing Value Source: NWS Daily Summary

Daily Weather History Graph

Daily Weather History Graph

Search for Another Location

Airport:

Trip Planner

Search our weather history database for the weather conditions in past years. The results will help you decide how hot, cold, wet, or windy it might be!

Date:

Astronomy

Feb. 09, 2014 Rise Set
Actual Time 6:28 AM CST 5:24 PM CST
Civil Twilight 6:03 AM CST 5:49 PM CST
Nautical Twilight 5:34 AM CST 6:17 PM CST
Astronomical Twilight 5:06 AM CST 6:46 PM CST
Moon 1:09 PM CST (2/9) 2:26 AM CST (2/9)
Length of Visible Light 11h 45m
Length of Day
10h 55m
Waxing Gibbous, 77% of the Moon is Illuminated
Feb 9
Waxing Gibbous
Feb 14
Full
Feb 22
Last Quarter
Mar 1
New
Mar 8
First Quarter

Hourly Weather History & Observations

Time (CST) Temp. Windchill Dew Point Humidity Pressure Visibility Wind Dir Wind Speed Gust Speed Precip Events Conditions
12:53 AM 45.0 °F 41.2 °F 41.0 °F 86% 30.16 in 10.0 mi North 6.9 mph - N/A   Clear
1:53 AM 44.1 °F 42.5 °F 39.0 °F 82% 30.14 in 10.0 mi North 3.5 mph - N/A   Clear
2:53 AM 43.0 °F - 37.9 °F 82% 30.14 in 10.0 mi Calm Calm - N/A   Clear
3:53 AM 41.0 °F - 37.9 °F 89% 30.15 in 10.0 mi Calm Calm - N/A   Clear
4:53 AM 39.9 °F 36.7 °F 37.9 °F 93% 30.17 in 10.0 mi NNW 4.6 mph - N/A   Partly Cloudy
5:53 AM 41.0 °F - 37.9 °F 89% 30.18 in 10.0 mi Calm Calm - N/A   Scattered Clouds
6:53 AM 39.9 °F - 37.9 °F 93% 30.19 in 10.0 mi Calm Calm - N/A   Clear
7:53 AM 48.0 °F - 41.0 °F 77% 30.20 in 10.0 mi Calm Calm - N/A   Clear
8:53 AM 52.0 °F - 42.1 °F 69% 30.23 in 10.0 mi Calm Calm - N/A   Clear
9:53 AM 55.9 °F - 42.1 °F 60% 30.22 in 10.0 mi Calm Calm - N/A   Clear
10:53 AM 61.0 °F - 42.1 °F 50% 30.20 in 10.0 mi Variable 3.5 mph - N/A   Clear
11:53 AM 62.1 °F - 42.1 °F 48% 30.18 in 10.0 mi Variable 3.5 mph - N/A   Clear
12:53 PM 64.0 °F - 42.1 °F 45% 30.13 in 10.0 mi WNW 5.8 mph - N/A   Clear
1:53 PM 66.0 °F - 43.0 °F 43% 30.10 in 10.0 mi Calm Calm - N/A   Clear
2:53 PM 66.0 °F - 42.1 °F 42% 30.09 in 10.0 mi WSW 5.8 mph - N/A   Clear
3:53 PM 66.0 °F - 41.0 °F 40% 30.10 in 10.0 mi Variable 4.6 mph - N/A   Clear
4:53 PM 64.0 °F - 42.1 °F 45% 30.11 in 10.0 mi SW 6.9 mph - N/A   Clear
5:53 PM 61.0 °F - 43.0 °F 52% 30.13 in 10.0 mi West 3.5 mph - N/A   Clear
6:53 PM 54.0 °F - 45.0 °F 72% 30.13 in 10.0 mi Calm Calm - N/A   Clear
7:53 PM 48.9 °F - 44.1 °F 83% 30.12 in 10.0 mi SSE 4.6 mph - N/A   Clear
8:53 PM 48.0 °F - 43.0 °F 83% 30.12 in 10.0 mi Calm Calm - N/A   Clear
9:53 PM 48.9 °F - 43.0 °F 80% 30.14 in 10.0 mi SW 3.5 mph - N/A   Clear
10:53 PM 51.1 °F - 44.1 °F 77% 30.15 in 10.0 mi WSW 6.9 mph - N/A   Clear
11:53 PM 51.1 °F - 46.0 °F 83% 30.13 in 10.0 mi WSW 9.2 mph - N/A   Clear